COSMOS 2520 (42907 NORAD) Tracking and Keplerian Element Data

This shows tracking and keplerian element data for the satellite.

Feedback or suggestion? Click here.




ElementValue
Catalog42907
NameCOSMOS 2520
Epoch Orbit587
Epoch Day80.92888851
Epoch Year2019
RAAN156.8881
Inclination0.0141
Eccentricity0.0002172
Argument of Perigee355.5538
Mean Anonmoly46.117
Mean Motion1.00273274
Decay Rate1.11E-06
L11 42907U 17046A 19080.92888851 .00000111 00000-0 00000-0 0 9990
L22 42907 0.0141 156.8881 0002172 355.5538 46.1170 1.00273274 5878

Live tracking and technical data element details for COSMOS 2520 (NORAD 42907). COSMOS 2520 can be tracked NOW for your location showing map with azimuth and elevation plus other details from your city location.

Track the satellite on the map from your city or location and see movement details for azimuth, elevation, latitude, longitude, range, height, and movement on the map or in text.







IsCatalogInMostPopularTable: catalog: 42907, numindb: 205
Update: records affected: 1



GetName: 42907 COSMOS 2520

Hit Count: updated at: Sat, 23 Mar 2019 03:05:50 GMT